• In Czech Republic
  • List of Countries
  • For 7 days
  • Water Temperature
  • Satellite Maps
  • Weather Map
  • Weather Widgets
  • user-avatar
    Login

    Hourly Weather Igls

    Today, 18 January, Thursday

    Time Temperature Precipitation Wind Pressure Humidity
    00:00 -5°C° 0.5 mm 3 mps 680 mmHg 94%
    01:00 -5°C° 0 mm 3 mps 680 mmHg 94%
    02:00 -4°C° 0.5 mm 2 mps 680 mmHg 93%
    03:00 -4°C° 0.5 mm 2 mps 680 mmHg 93%
    04:00 -4°C° 0.5 mm 2 mps 680 mmHg 93%
    05:00 -4°C° 0.3 mm 2 mps 680 mmHg 91%
    06:00 -4°C° 0.3 mm 2 mps 679 mmHg 90%
    07:00 -5°C° 0 mm 3 mps 679 mmHg 86%
    08:00 -4°C° 0.4 mm 3 mps 679 mmHg 86%
    09:00 -2°C° 0.4 mm 3 mps 678 mmHg 86%
    10:00 -2°C° 0.4 mm 4 mps 678 mmHg 86%
    11:00 +1°C° 0.2 mm 3 mps 678 mmHg 86%
    12:00 +2°C° 0.2 mm 3 mps 677 mmHg 85%
    13:00 +3°C° 0 mm 4 mps 677 mmHg 83%
    14:00 +3°C° 0.1 mm 3 mps 677 mmHg 84%
    15:00 +3°C° 0.1 mm 3 mps 676 mmHg 86%
    16:00 +3°C° 0.1 mm 3 mps 676 mmHg 87%
    17:00 +3°C° 0.1 mm 3 mps 676 mmHg 86%
    18:00 +2°C° 0.1 mm 3 mps 676 mmHg 86%
    19:00 +2°C° 0.1 mm 3 mps 676 mmHg 85%
    20:00 +2°C° 0.2 mm 3 mps 676 mmHg 85%
    21:00 +2°C° 0.2 mm 3 mps 676 mmHg 86%
    22:00 +2°C° 0.2 mm 3 mps 676 mmHg 86%
    23:00 +2°C° 0.4 mm 3 mps 676 mmHg 87%

    Tomorrow, 19 January, Friday

    Time Temperature Precipitation Wind Pressure Humidity
    00:00 +3°C° 0.4 mm 2 mps 676 mmHg 89%
    01:00 +3°C° 0.4 mm 2 mps 676 mmHg 90%
    02:00 +3°C° 0.7 mm 2 mps 676 mmHg 90%
    03:00 +3°C° 0.7 mm 2 mps 676 mmHg 91%
    04:00 +3°C° 0.7 mm 2 mps 675 mmHg 91%
    05:00 +3°C° 1.1 mm 2 mps 676 mmHg 92%
    06:00 +2°C° 1.1 mm 2 mps 676 mmHg 94%
    07:00 +2°C° 1.1 mm 2 mps 676 mmHg 95%
    08:00 +2°C° 0.9 mm 2 mps 677 mmHg 95%
    09:00 +2°C° 0.9 mm 2 mps 677 mmHg 95%
    10:00 +1°C° 0.9 mm 3 mps 678 mmHg 95%
    11:00 0°C° 0.4 mm 3 mps 678 mmHg 93%
    12:00 0°C° 0.4 mm 3 mps 678 mmHg 91%
    13:00 0°C° 0.4 mm 3 mps 678 mmHg 89%
    14:00 0°C° 0.2 mm 3 mps 678 mmHg 89%
    15:00 -1°C° 0.2 mm 3 mps 678 mmHg 90%
    16:00 -1°C° 0.2 mm 2 mps 679 mmHg 90%
    17:00 -2°C° 0.2 mm 2 mps 679 mmHg 91%
    18:00 -3°C° 0.2 mm 2 mps 679 mmHg 92%
    19:00 -4°C° 0.2 mm 2 mps 680 mmHg 92%
    20:00 -5°C° 0.1 mm 2 mps 680 mmHg 91%
    21:00 -5°C° 0.1 mm 2 mps 680 mmHg 91%
    22:00 -6°C° 0.1 mm 2 mps 680 mmHg 90%
    23:00 -6°C° 0.1 mm 2 mps 680 mmHg 88%

    Day after tomorrow, 20 January, Saturday

    Time Temperature Precipitation Wind Pressure Humidity
    00:00 -4°C° 0.1 mm 1 mps 680 mmHg 87%
    01:00 -4°C° 0.1 mm 1 mps 680 mmHg 86%
    02:00 -5°C° 0.3 mm 2 mps 680 mmHg 87%
    03:00 -5°C° 0.3 mm 2 mps 680 mmHg 89%
    04:00 -5°C° 0.3 mm 2 mps 680 mmHg 90%
    05:00 -5°C° 0.2 mm 2 mps 680 mmHg 90%
    06:00 -5°C° 0.2 mm 2 mps 680 mmHg 91%
    07:00 -3°C° 0.2 mm 1 mps 680 mmHg 91%
    08:00 -4°C° 0.2 mm 2 mps 680 mmHg 90%
    09:00 -3°C° 0.2 mm 2 mps 680 mmHg 89%
    10:00 -3°C° 0.2 mm 2 mps 680 mmHg 88%
    11:00 -2°C° 0.1 mm 2 mps 679 mmHg 84%
    12:00 -1°C° 0.1 mm 2 mps 678 mmHg 80%
    13:00 +1°C° 0.1 mm 2 mps 678 mmHg 76%
    14:00 +1°C° 0 mm 2 mps 677 mmHg 80%
    15:00 -1°C° 0 mm 2 mps 676 mmHg 83%
    16:00 -1°C° 0 mm 2 mps 675 mmHg 87%
    17:00 -2°C° 0.4 mm 2 mps 675 mmHg 89%
    18:00 -2°C° 0.4 mm 2 mps 674 mmHg 91%
    19:00 -3°C° 0.4 mm 2 mps 674 mmHg 93%
    20:00 -3°C° 0.7 mm 2 mps 674 mmHg 93%
    21:00 -3°C° 0.7 mm 2 mps 674 mmHg 93%
    22:00 -3°C° 0.7 mm 2 mps 674 mmHg 94%
    23:00 -2°C° 1.1 mm 2 mps 674 mmHg 95%

    21 January, Sunday

    Time Temperature Precipitation Wind Pressure Humidity
    00:00 -2°C° 1.1 mm 2 mps 675 mmHg 95%
    01:00 -2°C° 1.1 mm 2 mps 675 mmHg 96%
    02:00 -2°C° 1.1 mm 3 mps 675 mmHg 96%
    03:00 -4°C° 1.1 mm 4 mps 676 mmHg 96%
    04:00 -4°C° 1.1 mm 4 mps 677 mmHg 96%
    05:00 -5°C° 0.3 mm 4 mps 678 mmHg 95%
    06:00 -6°C° 0.3 mm 3 mps 679 mmHg 95%
    07:00 -7°C° 0.3 mm 3 mps 680 mmHg 95%
    08:00 -6°C° 0.1 mm 3 mps 680 mmHg 93%
    09:00 -6°C° 0.1 mm 3 mps 681 mmHg 92%
    10:00 -5°C° 0.1 mm 2 mps 682 mmHg 90%
    11:00 -4°C° 0 mm 2 mps 682 mmHg 84%
    12:00 -4°C° 0 mm 2 mps 682 mmHg 79%
    13:00 -3°C° 0 mm 2 mps 682 mmHg 73%
    14:00 -3°C° 0 mm 2 mps 682 mmHg 76%
    15:00 -1°C° 0 mm 1 mps 682 mmHg 80%
    16:00 -1°C° 0 mm 1 mps 682 mmHg 83%
    17:00 -1°C° 0.3 mm 1 mps 682 mmHg 85%
    18:00 -2°C° 0.3 mm 1 mps 682 mmHg 87%
    19:00 -2°C° 0.3 mm 1 mps 682 mmHg 90%
    20:00 -1°C° 0.8 mm 1 mps 683 mmHg 91%
    21:00 -1°C° 0.8 mm 1 mps 683 mmHg 93%
    22:00 0°C° 0.8 mm 1 mps 683 mmHg 94%
    23:00 +1°C° 1.5 mm 1 mps 683 mmHg 95%

    22 January, Monday

    Time Temperature Precipitation Wind Pressure Humidity
    00:00 +2°C° 1.5 mm 1 mps 683 mmHg 95%
    01:00 +2°C° 1.5 mm 1 mps 682 mmHg 96%
    02:00 +3°C° 2.6 mm 1 mps 682 mmHg 96%
    03:00 +3°C° 2.6 mm 1 mps 682 mmHg 96%
    04:00 +4°C° 2.6 mm 1 mps 682 mmHg 97%
    05:00 +4°C° 3.1 mm 1 mps 682 mmHg 97%
    06:00 +3°C° 3.1 mm 2 mps 683 mmHg 97%
    07:00 +4°C° 3.1 mm 2 mps 683 mmHg 97%
    08:00 +4°C° 2.4 mm 2 mps 683 mmHg 97%
    09:00 +4°C° 2.4 mm 2 mps 683 mmHg 97%
    10:00 +5°C° 2.4 mm 2 mps 684 mmHg 97%
    11:00 +5°C° 2.1 mm 2 mps 684 mmHg 98%
    12:00 +5°C° 2.1 mm 2 mps 684 mmHg 98%
    13:00 +6°C° 2.1 mm 2 mps 684 mmHg 98%
    14:00 +6°C° 1.2 mm 2 mps 684 mmHg 98%
    15:00 +6°C° 1.2 mm 2 mps 684 mmHg 97%
    16:00 +6°C° 1.2 mm 2 mps 684 mmHg 97%
    17:00 +6°C° 1.7 mm 2 mps 684 mmHg 96%
    18:00 +6°C° 1.7 mm 2 mps 685 mmHg 96%
    19:00 +6°C° 1.7 mm 2 mps 685 mmHg 96%
    20:00 +5°C° 0.1 mm 2 mps 685 mmHg 95%
    21:00 +5°C° 0.1 mm 2 mps 685 mmHg 95%
    22:00 +4°C° 0.1 mm 2 mps 686 mmHg 94%
    23:00 +4°C° 0.1 mm 2 mps 686 mmHg 94%

    23 January, Tuesday

    Time Temperature Precipitation Wind Pressure Humidity
    00:00 +4°C° 0.1 mm 2 mps 686 mmHg 94%
    01:00 +4°C° 0.1 mm 2 mps 686 mmHg 94%
    02:00 +4°C° 0.1 mm 2 mps 686 mmHg 92%
    03:00 +4°C° 0.1 mm 2 mps 686 mmHg 91%
    04:00 +4°C° 0.1 mm 2 mps 686 mmHg 89%
    05:00 +4°C° 0.1 mm 2 mps 686 mmHg 89%
    06:00 +4°C° 0.1 mm 2 mps 687 mmHg 89%
    07:00 +4°C° 0.1 mm 2 mps 687 mmHg 89%
    08:00 +5°C° 0 mm 2 mps 687 mmHg 91%
    09:00 +5°C° 0 mm 2 mps 688 mmHg 93%
    10:00 +6°C° 0 mm 2 mps 688 mmHg 95%
    11:00 +6°C° 0 mm 2 mps 688 mmHg 96%
    12:00 +6°C° 0 mm 2 mps 688 mmHg 97%
    13:00 +6°C° 0 mm 2 mps 689 mmHg 99%
    14:00 +6°C° 0 mm 2 mps 689 mmHg 98%
    15:00 +6°C° 0 mm 2 mps 689 mmHg 98%
    16:00 +5°C° 0 mm 2 mps 689 mmHg 97%
    17:00 +4°C° 0 mm 2 mps 689 mmHg 96%
    18:00 +3°C° 0 mm 2 mps 690 mmHg 94%
    19:00 +2°C° 0 mm 2 mps 690 mmHg 92%
    20:00 +2°C° 0 mm 2 mps 690 mmHg 90%
    21:00 +2°C° 0 mm 2 mps 691 mmHg 88%
    22:00 +1°C° 0 mm 2 mps 691 mmHg 85%
    23:00 +1°C° 0 mm 2 mps 691 mmHg 84%
    Show more